Volver al catálogo

HULIANWANG DIGUI-47

ActivoComunicacionesLEO
NORAD 65050·PAYLOAD·🇨🇳 China

Lanzado Jul 30, 2025 desde Wenchang Space Launch Site

Loading…

Próximos Pases (próximas 24 horas)

TLE

ActualizadoSource: Space-Track

Época: Sep 14, 2026, 13:42 UTC

1 65050U 25162H   26257.57112476 -.00000080  00000-0  95819-4 0  9992
2 65050  50.0034 304.9252 0000651 262.9504  97.1294 13.29329965 55253

Sigue HULIANWANG DIGUI-47 en tiempo real con AllMySat

Download on the App Store